Regional Weather Roundup
Issued by NWS

Home | Current Version | Previous Version | Graphics & Text | Print | Product List | Glossary On
Versions: 1 2 3 4 5 6 7 8 9 10 11 12 13 14 15 16 17 18 19 20 21 22 23 24 25 26 27 28 29 30 31 32 33 34 35 36 37 38 39 40 41 42 43 44 45 46 47 48 49 50
000
ASUS45 KCYS 270110
RWRWY

WYOMING REGIONAL WEATHER ROUNDUP
NATIONAL WEATHER SERVICE CHEYENNE WY
600 PM MST WED NOV 26 2014

NOTE:  "FAIR" INDICATES FEW OR NO CLOUDS BELOW 12,000 FEET
WITH NO SIGNIFICANT WEATHER AND/OR OBSTRUCTIONS TO VISIBILITY.

WYZ001-270200-
YELLOWSTONE NATIONAL PARK

CITY           SKY/WX    TMP DP  RH WIND       PRES   REMARKS
LK YELLOWSTONE   N/A     33  29  85 VRB7      30.28R WCI  27
W YELLOWSTONE  NOT AVBL

$$
WYZ002>013-054>058-071-098>099-270200-
NORTHERN WYOMING

CITY           SKY/WX    TMP DP  RH WIND       PRES   REMARKS
JACKSON        NOT AVBL
CODY           MOCLDY    21  19  93 CALM      30.14R
GREYBULL       CLOUDY    26  24  92 CALM      30.20S
WORLAND        FOG       18  16  92 NW5       30.20S VSB 3/4 WCI  11
SHERIDAN       CLOUDY    28  25  88 CALM      30.17S
BUFFALO        MOCLDY    26  22  84 S12       30.15F WCI  16
GILLETTE       CLOUDY    26  23  88 SE6       30.20R WCI  19
HULETT           N/A    N/A N/A N/A MISG        N/A
NEWCASTLE      CLOUDY    28  25  86 CALM      30.23F

$$
WYZ014>020-022>026-101>103-270200-
CENTRAL WYOMING

CITY           SKY/WX    TMP DP  RH WIND       PRES   REMARKS
BIG PINEY      PTCLDY   N/A N/A N/A N12       30.32R
PINEDALE       MOCLDY    32  30  93 NW6       30.32R WCI  26
DUBOIS         FAIR      34  28  80 W17       30.21R WCI  23
LANDER         MOCLDY    36  29  75 VRB3      30.16R
RIVERTON       MOCLDY    43  28  55 W20       30.17R
CASPER         PTCLDY    19  16  88 CALM      30.16F
DOUGLAS        PTCLDY    24  21  88 SE9       30.19F WCI  14

$$
WYZ021-027>030-104>119-270200-
SOUTHERN WYOMING

CITY           SKY/WX    TMP DP  RH WIND       PRES   REMARKS
EVANSTON       MOCLDY    39  29  67 SW20      30.38S WCI  29
FORT BRIDGER   FAIR      39  28  65 SW10      30.39S WCI  32
ROCK SPRINGS   MOCLDY    38  27  64 W7        30.32S WCI  33
DIXON          FAIR      42  28  56 W9        30.36R
RAWLINS        CLOUDY    41  28  60 W24G36    30.26R
SARATOGA       FAIR      41  28  60 W18G25    30.27R
LARAMIE        PTCLDY    40  27  59 W25G32    30.20R WCI  29
CHEYENNE       CLOUDY    29  22  75 S10       30.19R WCI  20
TORRINGTON     PTCLDY    27  24  89 E8        30.24R WCI  19
PINE BLUFFS    CLOUDY    27  23  86 S5        30.24R WCI  21

$$



USA.gov is the U.S. government's official web portal to all federal, state and local government web resources and services.